Location: Unnamed
(42.1164°N, 2.7652°E)
Time: 03:28:52
(UTC+02:00)

ISS - Visible Passes

Search period start: 02 August 2021 00:00
Search period end: 12 August 2021 00:00
Orbit: 419 x 421 km, 51.6° (Epoch: 01 August)

Date Brightness Start Highest point End Pass type
(mag) Time Alt. Az. Time Alt. Az. Time Alt. Az.
02 Aug -3.6 21:40:00 10° WNW 21:43:21 68° SW 21:46:42 10° SE visible
03 Aug -1.2 22:30:40 10° W 22:32:30 14° SW 22:34:19 10° SSW visible
04 Aug -1.8 21:42:39 10° W 21:45:23 23° SW 21:48:07 10° S visible
